Date,TemperatureHighF,TemperatureAvgF,TemperatureLowF,DewpointHighF,DewpointAvgF,DewpointLowF,HumidityHigh,HumidityAvg,HumidityLow,PressureMaxIn,PressureMinIn,WindSpeedMaxMPH,WindSpeedAvgMPH,GustSpeedMaxMPH,PrecipitationSumIn
2013-2-1,22,13,6,22,4,-1,99,66,52,30.38,29.93,17,8,17,0.76
2013-2-2,34,27,12,28,24,6,99,90,70,30.30,29.97,18,8,20,0.77
2013-2-3,28,23,19,24,18,15,93,80,63,30.08,29.93,14,7,16,0.00
2013-2-4,37,29,18,35,26,17,99,88,68,30.09,29.81,21,8,21,0.09
2013-2-5,39,34,30,35,32,30,99,94,80,29.93,29.83,7,2,8,0.12
2013-2-6,39,35,30,34,29,27,93,82,69,30.23,29.93,6,3,9,0.12
2013-2-7,65,50,30,40,34,27,93,62,35,30.19,29.89,11,4,14,0.12
2013-2-8,54,36,34,38,32,28,99,86,53,30.24,29.87,12,6,22,0.18
2013-2-9,47,34,22,22,21,19,88,61,37,30.40,30.24,8,3,9,0.18
2013-2-10,57,48,34,46,32,22,93,59,34,30.24,29.83,24,10,24,0.20
2013-2-11,53,49,42,50,34,28,92,58,43,30.02,29.79,35,16,40,0.21
2013-2-12,54,40,31,29,26,22,85,61,33,30.12,29.90,11,5,11,0.21
2013-2-13,38,33,31,34,31,26,99,93,64,29.89,29.75,8,3,10,0.07
2013-2-14,56,43,30,39,34,30,99,76,49,29.94,29.82,23,10,24,0.09
2013-2-15,47,34,27,35,28,22,90,79,52,30.13,29.94,14,5,14,0.09
2013-2-16,34,27,20,23,16,10,96,67,44,30.08,30.01,15,6,20,0.09
2013-2-17,38,27,14,15,8,0,94,51,23,30.21,30.08,11,4,15,0.09
2013-2-18,58,44,25,40,27,14,78,53,37,30.11,29.76,36,15,39,0.12
2013-2-19,46,33,26,42,28,15,99,80,61,30.07,29.75,26,14,30,0.19
2013-2-20,35,27,20,17,14,12,71,57,44,30.27,30.08,13,5,19,0.19
2013-2-21,36,29,19,24,20,14,84,70,60,30.32,30.11,14,6,16,0.19
2013-2-22,50,42,30,44,39,23,99,90,76,30.10,29.89,13,5,15,0.28
2013-2-23,52,41,32,37,28,24,89,61,38,29.98,29.88,11,4,14,0.28
2013-2-24,51,35,25,28,25,22,95,68,39,30.13,29.92,11,3,12,0.00
2013-2-25,51,37,24,28,24,22,93,63,40,30.14,29.87,14,6,16,0.00
2013-2-26,52,43,36,50,39,24,99,87,55,29.88,29.36,24,8,28,0.48
2013-2-27,41,40,38,41,39,38,99,99,98,29.57,29.52,17,11,24,0.01
2013-2-28,36,34,32,35,32,30,99,94,88,29.92,29.69,16,9,16,0.01